2013 ITU World Triathlon Grand Final London : Sep 15 2013 : 65-69 Male AG : Results

Pos First Name Last Name Country Time Swim T1 Bike T2 Run
1 Dieter Waller GER 02:11:10 00:12:59 00:03:52 01:07:44 00:03:28 00:43:09
2 Klaus Kübler AUT 02:11:20 00:13:21 00:03:41 01:06:48 00:03:35 00:43:58
3 Heinz Wolf SUI 02:18:25 00:14:35 00:04:27 01:07:34 00:04:14 00:47:37
4 Douglas Smith GBR 02:19:01 00:15:46 00:03:47 01:11:25 00:03:20 00:44:45
5 Mike Lyons NZL 02:21:10 00:14:27 00:03:49 01:11:47 00:03:49 00:47:20
6 Larry Mayse USA 02:21:44 00:15:00 00:03:48 01:11:31 00:04:25 00:47:02
7 Lindley Morton USA 02:22:09 00:12:08 00:04:17 01:12:47 00:04:19 00:48:40
8 Michael Zinn USA 02:22:22 00:15:12 00:03:24 01:09:05 00:03:35 00:51:07
9 Gene Cormier USA 02:23:29 00:16:25 00:03:49 01:11:58 00:03:46 00:47:34
10 David Davidson GBR 02:25:43 00:13:50 00:04:11 01:12:28 00:03:50 00:51:26
11 Kenneth Treadwell GBR 02:25:46 00:15:23 00:04:17 01:13:19 00:03:42 00:49:07
12 Tom Dutton USA 02:26:25 00:13:35 00:04:42 01:12:02 00:03:58 00:52:09
13 Allan Kenny GBR 02:26:31 00:13:23 00:04:36 01:10:50 00:03:54 00:53:50
14 Jim Phelan GBR 02:27:00 00:14:34 00:04:40 01:13:53 00:03:56 00:49:58
15 Keith Walker GBR 02:27:08 00:17:04 00:04:53 01:11:11 00:04:17 00:49:44
16 Peter Gibbs NZL 02:28:24 00:13:20 00:03:27 01:13:48 00:03:47 00:54:03
17 Hugues Fabritius FRA 02:28:43 00:14:46 00:03:44 01:13:36 00:04:02 00:52:36
18 Ray Gray GBR 02:28:58 00:14:32 00:04:45 01:13:46 00:04:28 00:51:29
19 Michael Hatch CAN 02:29:18 00:14:10 00:04:49 01:09:59 00:05:17 00:55:04
20 Clive Bradburn GBR 02:29:55 00:13:44 00:04:27 01:13:12 00:04:37 00:53:57
21 Larry Bobbett CAN 02:30:02 00:14:24 00:05:09 01:11:38 00:04:44 00:54:08
22 Gregor Coster NZL 02:30:07 00:16:08 00:04:04 01:14:05 00:04:37 00:51:15
23 Don Hutchinson GBR 02:30:19 00:15:33 00:04:47 01:12:29 00:03:56 00:53:36
24 Peter Holgate AUS 02:30:38 00:15:47 00:03:55 01:15:32 00:03:55 00:51:33
25 Richard Sweetman NZL 02:31:33 00:16:02 00:04:35 01:15:03 00:04:04 00:51:51
26 Paul Bloom USA 02:32:04 00:15:33 00:04:23 01:16:21 00:04:23 00:51:26
27 William Hammerton GBR 02:32:13 00:15:16 00:04:04 01:13:15 00:03:44 00:55:55
28 Daniel O'Connell USA 02:32:19 00:14:28 00:05:31 01:17:30 00:05:23 00:49:28
29 Alejandro Ignacio Samperio Leon MEX 02:33:12 00:20:07 00:05:11 01:16:14 00:04:59 00:46:43
30 Bill Shackcloth GBR 02:33:58 00:15:38 00:05:08 01:15:08 00:04:00 00:54:06
31 Helmut Neuhaus GER 02:33:59 00:17:43 00:04:01 01:13:43 00:04:19 00:54:15
32 Harvey Hughes GBR 02:35:01 00:16:28 00:05:47 01:14:26 00:04:21 00:54:01
33 Phillip Crombie AUS 02:35:13 00:17:40 00:05:22 01:17:50 00:04:11 00:50:13
34 Mick Nielsen GBR 02:36:23 00:16:18 00:05:05 01:18:18 00:05:28 00:51:15
35 Francis Schauer USA 02:36:32 00:16:03 00:06:01 01:13:57 00:05:50 00:54:43
36 Boleslaw Szramek CAN 02:36:46 00:15:14 00:03:52 01:17:29 00:05:08 00:55:05
37 Ian Dargin USA 02:36:51 00:17:28 00:05:51 01:09:01 00:04:45 00:59:47
38 Vernon Thomas GBR 02:37:34 00:19:53 00:04:28 01:13:53 00:04:39 00:54:42
39 Terry Habecker USA 02:37:59 00:14:14 00:08:07 01:23:45 00:04:17 00:47:38
40 Terry Windeatt GBR 02:38:08 00:13:05 00:04:58 01:17:52 00:05:12 00:57:02
41 Bob Sharp GBR 02:38:11 00:14:29 00:04:23 01:16:43 00:04:20 00:58:17
42 Hitohiko Sakajiri JPN 02:39:01 00:17:00 00:07:41 01:20:09 00:06:23 00:47:50
43 Andrea Latrofa ITA 02:39:02 00:22:15 00:06:04 01:19:22 00:04:06 00:47:17
44 David Abrams GBR 02:39:26 00:16:49 00:05:06 01:22:16 00:04:58 00:50:18
45 Andrew Cunnell GBR 02:39:45 00:16:10 00:04:19 01:16:54 00:05:11 00:57:13
46 Gordon Bruce Beehre NZL 02:39:47 00:18:37 00:05:52 01:18:48 00:05:26 00:51:07
47 Robert Lundine CAN 02:40:07 00:15:31 00:05:13 01:16:58 00:04:39 00:57:47
48 Richard Pitcairn GBR 02:41:09 00:16:06 00:06:10 01:21:58 00:04:33 00:52:23
49 Paul Griffin NZL 02:41:36 00:13:37 00:04:56 01:19:59 00:05:58 00:57:08
50 William Curran USA 02:42:58 00:18:52 00:08:03 01:16:09 00:05:53 00:54:03
51 Werner Nesseler GER 02:42:59 00:18:24 00:05:00 01:18:14 00:05:04 00:56:20
52 Stephen Flick AUS 02:43:37 00:18:17 00:05:20 01:21:10 00:03:50 00:55:02
53 Brian Shea USA 02:44:11 00:17:30 00:05:55 01:21:26 00:05:42 00:53:40
54 Yannick ChouË De La Mettrie FRA 02:45:01 00:18:03 00:04:51 01:17:22 00:07:48 00:56:59
55 Peter Clarke AUS 02:45:39 00:16:57 00:05:16 01:23:04 00:04:59 00:55:25
56 Richard Pearson GBR 02:48:06 00:18:11 00:03:57 01:17:06 00:04:32 01:04:23
57 Christiaan Viljoen RSA 02:48:53 00:14:09 00:05:51 01:22:36 00:06:09 01:00:09
58 Ron Allen CAN 02:49:53 00:16:37 00:06:12 01:18:54 00:05:13 01:02:59
59 Terry Edgett CAN 02:50:46 00:18:44 00:05:17 01:19:39 00:04:27 01:02:41
60 Albaro Virgilio Montes Ramos MEX 02:51:18 00:19:38 00:05:39 01:27:17 00:05:25 00:53:22
61 George Somlo GBR 02:54:13 00:21:11 00:06:54 01:22:16 00:07:05 00:56:48
62 Ian Graham AUS 02:57:52 00:19:36 00:05:34 01:27:07 00:05:59 00:59:39
63 Hendrik Fehr LUX 03:04:16 00:19:18 00:07:08 01:28:15 00:05:16 01:04:21
64 Rick Telford CAN 03:12:42 00:21:57 00:07:31 01:28:20 00:07:11 01:07:45
DNF Kenneth Beecham GBR 00:00:00 00:13:54 00:04:46 01:11:51 00:04:25 00:00:00
DNF Richard Melvern GBR 00:00:00 00:14:03 00:06:15 01:13:16 00:04:00 00:00:00
DNF Sherman Roberts USA 00:00:00 00:14:26 00:04:57 00:00:00 00:00:00 00:00:00
DSQ Kenneth Geljack USA 00:00:00 00:00:00 00:00:00 00:00:00 00:00:00 00:00:00

Due to the combined air and water temperature, the swim was shortened to 750m